Carmi, IL

6:01 PM CDT on May 24, 2017 (GMT -0500)
Carmi Municipal

Weather History for KCUL - June, 2013

Change the Weather History Date:

Thursday, June 20, 2013

  Actual Average (KEHR) Record (KEHR)
Temperature  
Mean Temperature 80 °F -  
Max Temperature 92 °F 87 °F 102 °F (1933)
Min Temperature 67 °F 64 °F 49 °F (1980)
Cooling Degree Days 14    
Growing Degree Days 30 (Base 50)    
Moisture  
Dew Point 64 °F    
Average Humidity 64    
Maximum Humidity 94    
Minimum Humidity 32    
Precipitation  
Precipitation 0.00 in - - ()
Sea Level Pressure  
Sea Level Pressure 30.11 in    
Wind  
Wind Speed 2 mph (SE)    
Max Wind Speed 9 mph    
Max Gust Speed -    
Visibility 9 miles    
Events      
Averages and records for this station are not official NWS values.
T = Trace of Precipitation, MM = Missing Value Source: NWS Daily Summary

Daily Weather History Graph

Daily Weather History Graph

Search for Another Location

Airport or City:

Trip Planner

Search our weather history database for the weather conditions in past years. The results will help you decide how hot, cold, wet, or windy it might be!

Date:

Astronomy

Jun. 20, 2013 Rise Set
Actual Time 5:29 AM CDT 8:18 PM CDT
Civil Twilight 4:58 AM CDT 8:50 PM CDT
Nautical Twilight 4:18 AM CDT 9:29 PM CDT
Astronomical Twilight 3:33 AM CDT 10:14 PM CDT
Moon 5:22 PM CDT (6/20) 2:53 AM CDT (6/20)
Length of Visible Light 15h 51m
Length of Day
14h 48m
Waxing Gibbous, 89% of the Moon is Illuminated
Jun 20
Waxing Gibbous
Jun 23
Full
Jun 29
Last Quarter
Jul 8
New
Jul 15
First Quarter

Hourly Weather History & Observations

Time (CDT) Temp. Heat Index Dew Point Humidity Pressure Visibility Wind Dir Wind Speed Gust Speed Precip Events Conditions
12:15 AM 71.2 °F - 67.1 °F 87% 30.08 in 10.0 mi Calm Calm - N/A   Clear
12:35 AM 71.2 °F - 67.5 °F 88% 30.08 in 10.0 mi Calm Calm - N/A   Clear
12:55 AM 70.0 °F - 66.6 °F 89% 30.08 in 10.0 mi Calm Calm - N/A   Clear
1:15 AM 69.8 °F - 66.7 °F 90% 30.08 in 7.0 mi Calm Calm - N/A   Clear
1:35 AM 69.8 °F - 67.1 °F 91% 30.07 in 7.0 mi Calm Calm - N/A   Clear
1:55 AM 68.9 °F - 66.6 °F 92% 30.07 in 7.0 mi Calm Calm - N/A   Clear
2:15 AM 68.5 °F - 66.0 °F 92% 30.08 in 7.0 mi East 3.5 mph - N/A   Clear
2:35 AM 69.8 °F - 66.4 °F 89% 30.08 in 10.0 mi East 3.5 mph - N/A   Clear
2:55 AM 68.9 °F - 66.0 °F 90% 30.08 in 7.0 mi Calm Calm - N/A   Clear
3:15 AM 68.7 °F - 66.2 °F 92% 30.08 in 7.0 mi Calm Calm - N/A   Clear
3:35 AM 68.4 °F - 66.2 °F 93% 30.09 in 7.0 mi Calm Calm - N/A   Clear
3:55 AM 68.0 °F - 65.3 °F 91% 30.09 in 7.0 mi Calm Calm - N/A   Clear
4:15 AM 67.8 °F - 65.5 °F 92% 30.09 in 7.0 mi Calm Calm - N/A   Clear
4:35 AM 68.2 °F - 66.0 °F 93% 30.10 in 7.0 mi Calm Calm - N/A   Clear
4:55 AM 67.8 °F - 65.1 °F 91% 30.10 in 7.0 mi Calm Calm - N/A   Clear
5:15 AM 67.3 °F - 64.8 °F 92% 30.11 in 7.0 mi Calm Calm - N/A   Clear
5:35 AM 67.3 °F - 64.9 °F 92% 30.10 in 7.0 mi Calm Calm - N/A   Clear
5:55 AM 67.1 °F - 65.3 °F 94% 30.11 in 2.5 mi Calm Calm - N/A   Clear
6:15 AM 67.1 °F - 65.3 °F 94% 30.12 in 5.0 mi Calm Calm - N/A   Clear
6:35 AM 68.0 °F - 65.5 °F 92% 30.12 in 5.0 mi Calm Calm - N/A   Clear
6:55 AM 70.3 °F - 66.9 °F 89% 30.13 in 7.0 mi Calm Calm - N/A   Clear
7:15 AM 71.2 °F - 67.1 °F 87% 30.13 in 10.0 mi Calm Calm - N/A   Clear
7:35 AM 73.9 °F - 67.5 °F 80% 30.13 in 10.0 mi ESE 3.5 mph - N/A   Clear
7:55 AM 75.7 °F - 66.2 °F 72% 30.14 in 10.0 mi SE 4.6 mph - N/A   Clear
8:15 AM 77.2 °F - 65.8 °F 68% 30.15 in 10.0 mi SE 5.8 mph - N/A   Clear
8:35 AM 78.8 °F - 65.8 °F 64% 30.15 in 10.0 mi SE 6.9 mph - N/A   Clear
8:55 AM 80.2 °F 82.1 °F 65.3 °F 60% 30.15 in 10.0 mi SE 5.8 mph - N/A   Clear
9:15 AM 81.0 °F 82.7 °F 64.9 °F 58% 30.15 in 10.0 mi SE 6.9 mph - N/A   Clear
9:35 AM 82.6 °F 84.5 °F 65.7 °F 56% 30.15 in 10.0 mi SE 5.8 mph - N/A   Clear
9:55 AM 82.4 °F 84.2 °F 65.5 °F 56% 30.15 in 10.0 mi SE 5.8 mph - N/A   Clear
10:15 AM 83.8 °F 86.0 °F 66.0 °F 55% 30.15 in 10.0 mi SE 4.6 mph - N/A   Clear
10:35 AM 84.9 °F 87.1 °F 65.8 °F 53% 30.15 in 10.0 mi SSE 4.6 mph - N/A   Clear
10:55 AM 86.0 °F 87.9 °F 65.7 °F 50% 30.15 in 10.0 mi ESE 3.5 mph - N/A   Clear
11:15 AM 86.4 °F 88.1 °F 65.1 °F 49% 30.15 in 10.0 mi South 4.6 mph - N/A   Clear
11:35 AM 87.1 °F 88.9 °F 64.9 °F 48% 30.15 in 10.0 mi SSE 4.6 mph - N/A   Clear
11:55 AM 87.8 °F 89.7 °F 65.5 °F 47% 30.14 in 10.0 mi SE 6.9 mph - N/A   Clear
12:15 PM 87.3 °F 89.2 °F 65.1 °F 48% 30.14 in 10.0 mi SE 8.1 mph - N/A   Scattered Clouds
12:35 PM 89.6 °F 90.4 °F 62.8 °F 41% 30.14 in 10.0 mi SE 6.9 mph - N/A   Mostly Cloudy
12:55 PM 89.4 °F 89.8 °F 62.2 °F 40% 30.13 in 10.0 mi SSE 3.5 mph - N/A   Scattered Clouds
1:15 PM 89.4 °F 88.7 °F 59.4 °F 36% 30.13 in 10.0 mi SSE 4.6 mph - N/A   Clear
1:35 PM 90.3 °F 89.9 °F 60.3 °F 36% 30.12 in 10.0 mi SSE 6.9 mph - N/A   Clear
1:55 PM 91.2 °F 90.5 °F 59.5 °F 34% 30.12 in 10.0 mi SE 6.9 mph - N/A   Clear
2:15 PM 90.5 °F 89.3 °F 57.9 °F 33% 30.12 in 10.0 mi SSW 3.5 mph - N/A   Clear
2:35 PM 91.2 °F 89.9 °F 57.9 °F 32% 30.11 in 10.0 mi SSW 4.6 mph - N/A   Clear
2:55 PM 91.2 °F 90.2 °F 58.3 °F 33% 30.11 in 10.0 mi Calm Calm - N/A   Clear
3:15 PM 91.4 °F 90.1 °F 57.4 °F 32% 30.10 in 10.0 mi SW 3.5 mph - N/A   Clear
3:35 PM 90.9 °F 89.4 °F 57.4 °F 32% 30.10 in 10.0 mi SE 4.6 mph - N/A   Clear
3:55 PM 92.1 °F 91.1 °F 58.5 °F 32% 30.10 in 10.0 mi Calm Calm - N/A   Clear
4:15 PM 90.5 °F 89.3 °F 57.6 °F 33% 30.09 in 10.0 mi SE 3.5 mph - N/A   Clear
4:35 PM 91.2 °F 89.9 °F 57.9 °F 32% 30.09 in 10.0 mi SSE 3.5 mph - N/A   Clear
4:55 PM 90.1 °F 88.8 °F 57.7 °F 33% 30.09 in 10.0 mi Calm Calm - N/A   Clear
5:15 PM 90.0 °F 88.6 °F 57.6 °F 33% 30.08 in 10.0 mi Calm Calm - N/A   Clear
5:35 PM 90.5 °F 89.5 °F 58.3 °F 34% 30.08 in 10.0 mi Calm Calm - N/A   Clear
5:55 PM 90.5 °F 89.5 °F 58.6 °F 34% 30.08 in 10.0 mi Calm Calm - N/A   Clear
6:15 PM 89.1 °F 88.8 °F 60.3 °F 38% 30.08 in 10.0 mi SSE 3.5 mph - N/A   Clear
6:35 PM 89.1 °F 88.5 °F 59.9 °F 37% 30.08 in 10.0 mi SE 3.5 mph - N/A   Clear
6:55 PM 88.5 °F 89.2 °F 62.6 °F 42% 30.08 in 10.0 mi SE 3.5 mph - N/A   Clear
7:15 PM 88.0 °F 89.0 °F 63.9 °F 44% 30.09 in 10.0 mi East 3.5 mph - N/A   Mostly Cloudy
7:35 PM 85.3 °F 86.8 °F 64.6 °F 50% 30.09 in 10.0 mi East 9.2 mph - N/A   Scattered Clouds
7:55 PM 83.1 °F 84.8 °F 65.1 °F 54% 30.09 in 10.0 mi East 8.1 mph - N/A   Scattered Clouds
8:15 PM 80.6 °F 82.8 °F 66.6 °F 62% 30.10 in 10.0 mi East 4.6 mph - N/A   Scattered Clouds
8:35 PM 78.3 °F - 67.1 °F 68% 30.10 in 10.0 mi ESE 4.6 mph - N/A   Clear
8:55 PM 76.8 °F - 67.8 °F 74% 30.10 in 10.0 mi ESE 4.6 mph - N/A   Clear
9:15 PM 76.6 °F - 68.0 °F 75% 30.10 in 10.0 mi ESE 5.8 mph - N/A   Clear
9:35 PM 76.1 °F - 68.0 °F 76% 30.11 in 10.0 mi ESE 4.6 mph - N/A   Clear
9:55 PM 75.4 °F - 68.0 °F 78% 30.11 in 10.0 mi ESE 3.5 mph - N/A   Clear
10:15 PM 75.2 °F - 67.6 °F 77% 30.12 in 10.0 mi ESE 3.5 mph - N/A   Clear
10:35 PM 74.7 °F - 67.6 °F 79% 30.12 in 10.0 mi ESE 4.6 mph - N/A   Clear
10:55 PM 74.3 °F - 67.5 °F 79% 30.12 in 10.0 mi East 4.6 mph - N/A   Clear
11:15 PM 73.0 °F - 67.3 °F 82% 30.12 in 10.0 mi East 3.5 mph - N/A   Clear
11:35 PM 73.6 °F - 67.5 °F 81% 30.12 in 10.0 mi Calm Calm - N/A   Clear
11:55 PM 73.6 °F - 67.5 °F 81% 30.12 in 10.0 mi Calm Calm - N/A   Clear